Regional Weather Roundup
Issued by NWS Upton, NY

Current Version | Previous Version | Text Only | Print | Product List | Glossary On
Versions: 1 2 3 4 5 6 7 8 9 10 11 12 13 14 15 16 17 18 19 20 21 22 23 24 25 26 27 28 29 30 31 32 33 34 35 36 37 38 39 40 41 42 43 44 45 46 47 48 49 50
000
ASUS41 KOKX 252005
RWROKX

REGIONAL WEATHER ROUNDUP
NATIONAL WEATHER SERVICE NEW YORK NY
300 PM EST SUN JAN 25 2015

NOTE: "FAIR" INDICATES FEW OR NO CLOUDS BELOW 12,000 FEET WITH NO
SIGNIFICANT WEATHER AND/OR OBSTRUCTIONS TO VISIBILITY.

NYZ071-072-176-178-NJZ106-104-252100-
NEW YORK CITY METRO AREA


CITY           SKY/WX    TMP DP  RH WIND       PRES   REMARKS
CENTRAL PARK   MOSUNNY   42  11  28 NW10G20   29.81R
LAGUARDIA APRT PTSUNNY   41  17  38 NW10      29.80R
KENNEDY INTL   PTSUNNY   44  10  25 NW20      29.79R
NEWARK/LIBERTY PTSUNNY   42  17  36 NW16      29.79R
BRNX BOT. GARD   N/A    N/A N/A N/A W8        29.81R
TETERBORO      MOSUNNY   40  13  33 NW14      29.79R WCI  32
$$

NYZ177-179-078>081-252100-
LONG ISLAND NEW YORK

CITY           SKY/WX    TMP DP  RH WIND       PRES   REMARKS
FARMINGDALE    MOSUNNY   42  14  32 NW13      29.78R
ISLIP          PTSUNNY   40  13  33 NW17G25   29.76R WCI  31
SHIRLEY        SUNNY     40  14  34 NW18G25   29.78R WCI  31
WESTHAMPTON    SUNNY     41  15  35 W15       29.78R
MONTAUK POINT    N/A     42  21  43 W13G21    29.75R
$$

NYZ052-065-067-252100-
HUDSON VALLEY

CITY           SKY/WX    TMP DP  RH WIND       PRES   REMARKS
WHITE PLAINS   MOSUNNY   35  12  38 NW14G22   29.76S WCI  26
NEWBURGH       MOSUNNY   34  14  44 W16G25    29.80R WCI  23
MONTGOMERY     SUNNY     35   9  33 W12       29.80R WCI  27
POUGHKEEPSIE   SUNNY     37  10  32 NW13      29.79R WCI  29
ALBANY         MOSUNNY   26   6  42 W17G25    29.85R WCI  13
$$

NJZ001-105-106-008-010-013-015-019>022-104-252100-
NEW JERSEY

CITY           SKY/WX    TMP DP  RH WIND       PRES   REMARKS
NEWARK/LIBERTY PTSUNNY   42  17  36 NW16      29.79R
TETERBORO      MOSUNNY   40  13  33 NW14      29.79R WCI  32
CALDWELL       MOSUNNY   40  10  29 NW14      29.80R WCI  32
MORRISTOWN     PTSUNNY   41  14  33 NW12G18   29.80R
SOMERVILLE     PTSUNNY   43  21  41 NW10G17   29.78R
SUSSEX         MOSUNNY   35   6  29 NW10G18   29.80R WCI  27
ANDOVER          N/A     37  10  32 N7        29.79R WCI  32
TRENTON        CLOUDY    42  28  57 NW12G17   29.80R
MILLVILLE      CLOUDY    49  32  52 W9        29.80F
ATLANTIC CITY  PTSUNNY   49  29  46 W13G22    29.81R
WRIGHTSTOWN    PTSUNNY   43  31  61 W10       29.79R
TOMS RIVER     PTSUNNY   45  28  53 W13G23    29.82R
BELMAR         PTSUNNY   43  27  52 W14       29.79R
$$

PAZ047>061-062-071-252100-
EASTERN PENNSYLVANIA

CITY           SKY/WX    TMP DP  RH WIND       PRES   REMARKS
PHILADELPHIA   PTSUNNY   46  30  53 W14       29.82R
ALLENTOWN      CLOUDY    39  24  55 NW9       29.79S WCI  33
SCRANTON       SUNNY     33   9  36 N9        29.81R WCI  25
$$

CTZ002-004>006-009-010-012-RIZ004-006-007-MAZ004-011-015-252100-
SOUTHERN NEW ENGLAND
 IN CT

CITY           SKY/WX    TMP DP  RH WIND       PRES   REMARKS
BRADLEY INTL   MOSUNNY   33   8  35 NW17      29.78R WCI  22
HARTFORD       SUNNY     34  10  37 W9        29.79R WCI  27
DANBURY        SUNNY     35   8  32 NW14      29.78R WCI  26
WTRBRY/OXFORD  MOSUNNY   36  12  38 NW10G18   29.75  WCI  28
BRIDGEPORT     SUNNY     38  17  42 W16G23    29.77R WCI  29
MERIDEN        SUNNY     36  14  40 W12G21    29.78R WCI  28
NEW HAVEN      MOSUNNY   38  13  35 NW8G18    29.76R WCI  32
CHESTER        FAIR      36  18  48 NW13G20   29.75R WCI  27
GROTON         SUNNY     38  15  39 NW17G24   29.74R WCI  28
WILLIMANTIC    SUNNY     33   9  36 W15G26    29.77R WCI  23

 IN RI

CITY           SKY/WX    TMP DP  RH WIND       PRES   REMARKS
PROVIDENCE     MOSUNNY   35  14  42 W17G31    29.73R WCI  25
BLOCK ISLAND   SUNNY     39  18  41 NW13G24   29.72R WCI  32
WESTERLY       SUNNY     39  17  41 NW10G21   29.75R WCI  32

 IN MA

CITY           SKY/WX    TMP DP  RH WIND       PRES   REMARKS
BOSTON         MOSUNNY   36  13  38 W15G23    29.70R WCI  27
WORCESTER      SUNNY     30   6  36 W15G24    29.68R WCI  19
WESTFIELD      SUNNY     31   7  36 W21G29    29.77R WCI  18
PROVINCETOWN   NOT AVBL
NANTUCKET      SUNNY     41  23  48 W18G28    29.69R
$$

ANZ330-335-338-340-345-350-353-355-252100-
COASTAL MARINE OBSERVATIONS


STATION/POSITION TIME  SKY/WX   TEMP    WIND        PRES    VSBY  WAVE
                                AIR SEA DIR/SP/G                  HT/PER
                 (UTC)          (F)     (DEG/KT/KT) (MB)    (MI)  (FT/S)
NY HARB ENTRANCE 2000            43 42  300/ 14/ 17 1008.0          3/12
4S FIRE IS       2000               39                N/A           5/11
20S FIRE ISLAND  1900               42              1008.3          6/12
23SW MTP         2000                                 N/A           8/13
HUDSON CANYON    NOT AVBL
EXECUTION ROCKS  2000            40 35  310/ 14/ 19   N/A
WESTERN LI SOUND 2000            38     310/ 17/ 21   N/A           1/ 3
CENTRAL LI SOUND 1900            38 37  300/ 16/ 17   N/A           3/ 5
EASTERN LI SOUND NOT AVBL
ROBBINS REEF     2000            42     310/ 18/ 21 1007.2
$$


>>>>>>>>>>>>>>>>>>>>>>>>>>>> KEY <<<<<<<<<<<<<<<<<<<<<<<<<<<
>                                                          <
>     SKY/WX - SKY CONDITION/PRESENT WEATHER               <
>     TMP    - TEMPERATURE IN FAHRENHEIT                   <
>     DP     - DEWPOINT IN FAHRENHEIT                      <
>     RH     - RELATIVE HUMIDITY IN PERCENT                <
>     WIND   - DIRECTION AND SPEED IN MPH                  <
>     PRES   - MEAN SEA LEVEL PRESSURE IN INCHES OF HG     <
>     WCI    - WIND CHILL INDEX                            <
>     VSB    - VISIBILITY IN MILES                         <
>     HX     - HEAT INDEX                                  <
>     TC     - TEMPERATURE IN CELSIUS                      <
>     VRB    - VARIABLE WIND DIRECTION                     <
>                                                          <
>>>>>>>>>>>>>>>>>>>>>>>>>>>> KEY <<<<<<<<<<<<<<<<<<<<<<<<<<<




USA.gov is the U.S. government's official web portal to all federal, state and local government web resources and services.